User: anonymous   Login
Location: Nickerson Gardens
(33.9320°N, 118.2484°W)
Time: 17:43:39
(UTC+00:00)
Language:

ESTCUBE 1 - Orbit

View from above orbital plane
View from above orbital plane
View from above satellite
View from above satellite

Ground track
Ground track

The orbit data is extracted from the following two-line orbital elements,

1 39161U 13021C   21106.17020140  .00000186  00000-0  37090-4 0  9990
2 39161  97.9388 188.7883 0009578 358.7005   1.4190 14.72454663426588
Epoch (UTC): 16 April 2021 04:05:05
Eccentricity: 0.0009578
inclination: 97.9388°
perigee height: 646 km
apogee height: 660 km
right ascension of ascending node: 188.7883°
argument of perigee: 358.7005°
revolutions per day: 14.72454663
mean anomaly at epoch: 1.4190°
orbit number at epoch: 42658

The dashed part of the orbit path shows where the satellite is in the earth's shadow,  

DLR